Location: McLaughlin
(0.0000°N, 0.0000°E)
Time: 06:31:14
(UTC+00:00)

Hubble Space Telescope - Pass Details

Date: 24 June 2019
Orbit: 536 x 540 km, 28.5° (Epoch: 13 October)

Event Time Altitude Azimuth Distance (km) Brightness Sun altitude
Exits shadow 04:26:22 10° 329° (NNW) 1,807 3.4 -21.9°
Reaches altitude 10° 04:26:28 10° 329° (NNW) 1,773 3.3 -21.9°
Maximum altitude 04:30:01 28° 29° (NNE) 1,016 2.7 -21.1°
Drops below altitude 10° 04:33:35 10° 89° (E) 1,776 4.4 -20.3°
Sets 04:36:04 0° 101° (ESE) 2,668 5.2 -19.7°
